GW4735 Weather Reports


time (UTC)temp
C
wind
direction
speed
KPH
gust
KPH
rain 1hr
cm
rain 24hr
cm
rain mn
cm
humidity
%
barometer
mb
20260906060121 21 0 0.0 0.0 0.00 0.56 0.00 96 1013.2
20260906054606 21 0 0.0 0.0 0.00 0.56 0.00 96 1013.2
20260906053055 21 0 0.0 1.6 0.00 0.56 0.00 96 1013.4
20260906051553 21 0 0.0 0.0 0.00 0.56 0.00 96 1013.5
20260906050051 21 0 0.0 0.0 0.00 0.56 0.00 96 1013.6
20260906044550 21 0 0.0 1.6 0.00 0.56 0.00 96 1013.5
20260906043054 21 0 0.0 0.0 0.00 0.56 0.00 95 1013.7
20260906041558 21 0 0.0 1.6 0.00 0.56 0.00 95 1013.6
20260906040055 21 0 0.0 0.0 0.00 0.56 0.00 95 1013.8
20260906034601 21 0 0.0 1.6 0.00 0.56 0.56 95 1013.9
20260906033056 22 0 0.0 1.6 0.00 0.56 0.56 95 1013.7
20260906031552 22 0 0.0 3.2 0.00 0.56 0.56 96 1013.9
20260906030055 22 0 0.0 4.8 0.00 0.56 0.56 96 1013.6
20260906024557 22 0 0.0 3.2 0.00 0.56 0.56 96 1013.6
20260906023055 22 297 1.6 8.0 0.00 0.56 0.56 96 1013.7
20260906021559 22 27 1.6 9.7 0.00 0.56 0.56 96 1013.4
20260906020052 22 339 0.0 1.6 0.00 0.56 0.56 95 1013.7
20260906014556 22 0 0.0 0.0 0.00 0.56 0.56 95 1013.3
20260906013054 23 0 0.0 0.0 0.00 0.56 0.56 94 1013.5
20260906011553 23 0 0.0 0.0 0.00 0.56 0.56 94 1013.3
20260906010128 23 0 0.0 1.6 0.00 0.56 0.56 93 1013.1
20260906004611 23 307 0.0 0.0 0.00 0.56 0.56 92 1013.1
20260906003052 23 0 0.0 0.0 0.00 0.56 0.56 91 1012.9
20260906001602 24 0 0.0 0.0 0.00 0.56 0.56 88 1012.6
20260906000059 25 0 0.0 0.0 0.00 0.56 0.56 86 1012.2
20260905234556 26 0 0.0 0.0 0.00 0.56 0.56 81 1012.2
20260905233053 28 0 0.0 0.0 0.00 0.56 0.56 75 1012.1
20260905231555 31 0 0.0 0.0 0.00 0.56 0.56 70 1012.1
20260905230056 30 0 0.0 3.2 0.00 0.56 0.56 68 1011.9
20260905224604 30 316 1.6 4.8 0.00 0.56 0.56 68 1011.9
20260905223055 30 305 3.2 6.4 0.00 0.56 0.56 67 1012.1
20260905221601 30 347 0.0 6.4 0.00 0.56 0.56 68 1012.1
20260905220058 30 266 1.6 6.4 0.00 0.56 0.56 66 1012.3
20260905214600 30 267 1.6 6.4 0.00 0.56 0.56 64 1012.5
20260905213100 30 268 3.2 6.4 0.00 0.56 0.56 68 1012.7
20260905211554 29 261 3.2 9.7 0.00 0.56 0.56 71 1012.8
20260905210112 29 280 0.0 8.0 0.00 0.56 0.56 75 1012.7
20260905204551 28 242 0.0 1.6 0.00 0.56 0.56 79 1012.8
20260905203101 27 0 0.0 1.6 0.00 0.56 0.56 84 1013.0
20260905201553 26 0 0.0 1.6 0.00 0.56 0.56 90 1013.0
20260905200114 26 0 0.0 3.2 0.00 0.56 0.56 90 1013.0
20260905194600 25 0 0.0 4.8 0.00 0.56 0.56 91 1013.2
20260905193055 25 0 1.6 9.7 0.00 0.56 0.56 93 1013.1
20260905191553 24 268 1.6 4.8 0.00 0.56 0.56 97 1013.2
20260905184610 23 0 0.0 1.6 0.03 0.56 0.56 99 1012.4
20260905183055 23 0 0.0 1.6 0.10 0.56 0.56 99 1012.3
20260905181555 23 0 0.0 1.6 0.56 0.56 0.56 99 1013.8
20260905174603 21 105 3.2 20.9 0.53 0.53 0.53 97 1014.5
20260905173055 23 359 25.7 57.9 0.38 0.38 0.38 79 1015.8
20260905171553 33 49 6.4 17.7 0.00 0.00 0.00 58 1014.0
20260905170053 33 34 4.8 9.7 0.00 0.00 0.00 58 1014.2
20260905164557 34 294 1.6 16.1 0.00 0.00 0.00 57 1014.3
20260905163056 34 23 3.2 14.5 0.00 0.00 0.00 56 1014.3
20260905161602 34 253 4.8 12.9 0.00 0.00 0.00 55 1014.5
20260905160053 34 274 3.2 14.5 0.00 0.00 0.00 57 1014.9
20260905154602 34 0 6.4 12.9 0.00 0.00 0.00 57 1014.8
20260905153055 34 296 1.6 6.4 0.00 0.00 0.00 59 1014.5
20260905151609 33 333 0.0 6.4 0.00 0.00 0.00 64 1014.5
20260905150058 33 316 1.6 6.4 0.00 0.00 0.00 65 1014.6
20260905144556 33 117 0.0 4.8 0.00 0.00 0.00 68 1014.6
20260905143054 32 260 1.6 4.8 0.00 0.00 0.00 68 1014.9
20260905141601 31 277 0.0 4.8 0.00 0.00 0.00 71 1014.6
20260905134555 29 252 0.0 6.4 0.00 0.00 0.00 79 1014.8
20260905133054 28 269 0.0 6.4 0.00 0.00 0.00 79 1014.9
20260905131607 27 243 0.0 4.8 0.00 0.00 0.00 81 1015.0
20260905130052 27 276 0.0 0.0 0.00 0.00 0.00 82 1015.1
20260905124555 26 0 0.0 0.0 0.00 0.00 0.00 88 1015.2
20260905123110 23 0 0.0 0.0 0.00 0.00 0.00 91 1015.0
20260905121608 23 266 0.0 1.6 0.00 0.00 0.00 92 1015.1
20260905120053 22 0 0.0 0.0 0.00 0.00 0.00 95 1014.9
20260905114558 21 0 0.0 0.0 0.00 0.00 0.00 97 1014.6
20260905113104 21 0 0.0 0.0 0.00 0.00 0.00 97 1014.6
20260905111605 21 0 0.0 0.0 0.00 0.00 0.00 97 1014.4
20260905110052 20 0 0.0 0.0 0.00 0.00 0.00 97 1014.2
20260905104554 21 0 0.0 0.0 0.00 0.00 0.00 96 1014.1
20260905103103 21 0 0.0 0.0 0.00 0.00 0.00 96 1014.1
20260905101555 21 0 0.0 0.0 0.00 0.00 0.00 96 1013.9
20260905100100 21 0 0.0 0.0 0.00 0.00 0.00 95 1013.9
20260905094548 21 0 0.0 0.0 0.00 0.00 0.00 95 1013.9
20260905093058 21 0 0.0 1.6 0.00 0.00 0.00 96 1013.8
20260905091556 21 0 0.0 0.0 0.00 0.00 0.00 96 1013.8
20260905090056 21 0 0.0 0.0 0.00 0.00 0.00 96 1013.9
20260905084605 21 0 0.0 0.0 0.00 0.00 0.00 95 1013.9
20260905083051 21 0 0.0 0.0 0.00 0.00 0.00 95 1014.2
20260905081552 22 0 0.0 0.0 0.00 0.00 0.00 95 1014.1
20260905080133 22 0 0.0 0.0 0.00 0.00 0.00 95 1014.4
20260905074551 22 0 0.0 0.0 0.00 0.00 0.00 95 1014.5
20260905073056 22 0 0.0 0.0 0.00 0.00 0.00 94 1014.6
20260905071555 22 0 0.0 0.0 0.00 0.00 0.00 93 1014.6
20260905070057 22 0 0.0 0.0 0.00 0.00 0.00 93 1014.8
20260905064600 22 0 0.0 0.0 0.00 0.00 0.00 93 1015.0
20260905063058 22 0 0.0 0.0 0.00 0.00 0.00 93 1015.1
20260905061558 22 0 0.0 0.0 0.00 0.00 0.00 93 1015.2